Weather History for Athens, OH

Change the Weather History Date:

Wednesday, June 12, 2013

  Actual Average (KPKB) Record (KPKB)
Temperature  
Mean Temperature 76 °F 70 °F  
Max Temperature 86 °F 81 °F 93 °F (1902)
Min Temperature 65 °F 59 °F 43 °F (1980)
Cooling Degree Days 10 6  
Year to date cooling degree days 140  
Growing Degree Days 26 (Base 50)    
Moisture  
Dew Point 68 °F    
Average Humidity 75    
Maximum Humidity 90    
Minimum Humidity 59    
Precipitation  
Precipitation 0.00 in 0.14 in 0.92 in (2001)
Year to date precipitation 18.69  
Sea Level Pressure  
Sea Level Pressure 29.89 in    
Wind  
Wind Speed 2 mph (SSW)    
Max Wind Speed 8 mph    
Max Gust Speed -    
Visibility 10 miles    
Events      
T = Trace of Precipitation, MM = Missing Value Source: NWS Daily Summary

Daily Weather History Graph

Daily Weather History Graph

Search for Another Location

Airport:

Trip Planner

Search our weather history database for the weather conditions in past years. The results will help you decide how hot, cold, wet, or windy it might be!

Date:

Astronomy

Jun. 12, 2013 Rise Set
Actual Time 6:02 AM EDT 8:55 PM EDT
Civil Twilight 5:29 AM EDT 9:28 PM EDT
Nautical Twilight 4:49 AM EDT 10:08 PM EDT
Astronomical Twilight 4:02 AM EDT 10:55 PM EDT
Moon 9:39 AM EDT (6/12) 11:32 PM EDT (6/12)
Length of Visible Light 15h 58m
Length of Day
14h 53m
Waxing Crescent, 14% of the Moon is Illuminated
Jun 12
Waxing Crescent
Jun 16
First Quarter
Jun 23
Full
Jun 30
Last Quarter
Jul 8
New

Hourly Weather History & Observations

Time (EDT) Temp. Heat Index Dew Point Humidity Pressure Visibility Wind Dir Wind Speed Gust Speed Precip Events Conditions
12:15 AM 69.1 °F - 63.5 °F 82% 29.93 in 10.0 mi Calm Calm - N/A   Clear
12:35 AM 68.7 °F - 63.3 °F 83% 29.94 in 10.0 mi Calm Calm - N/A   Clear
12:55 AM 69.4 °F - 63.0 °F 80% 29.94 in 10.0 mi Calm Calm - N/A   Clear
1:15 AM 66.9 °F - 63.5 °F 89% 29.93 in 10.0 mi Calm Calm - N/A   Clear
1:35 AM 66.6 °F - 63.0 °F 88% 29.93 in 10.0 mi Calm Calm - N/A   Clear
1:55 AM 67.1 °F - 63.1 °F 87% 29.93 in 10.0 mi Calm Calm - N/A   Clear
2:15 AM 66.4 °F - 62.6 °F 88% 29.93 in 10.0 mi Calm Calm - N/A   Scattered Clouds
2:35 AM 66.4 °F - 63.3 °F 90% 29.92 in 10.0 mi Calm Calm - N/A   Mostly Cloudy
2:55 AM 67.1 °F - 63.7 °F 89% 29.92 in 10.0 mi North - - N/A   Overcast
3:15 AM 67.1 °F - 63.9 °F 89% 29.92 in 10.0 mi Calm Calm - N/A   Overcast
3:35 AM 67.5 °F - 63.7 °F 88% 29.92 in 10.0 mi Calm Calm - N/A   Scattered Clouds
3:55 AM 66.6 °F - 63.5 °F 90% 29.92 in 10.0 mi Calm Calm - N/A   Scattered Clouds
4:15 AM 65.8 °F - 63.0 °F 90% 29.92 in 10.0 mi Calm Calm - N/A   Clear
4:35 AM 66.2 °F - 63.1 °F 90% 29.92 in 10.0 mi Calm Calm - N/A   Scattered Clouds
4:55 AM 66.7 °F - 63.7 °F 90% 29.92 in 10.0 mi SW 3.5 mph - N/A   Mostly Cloudy
5:15 AM 66.2 °F - 63.0 °F 89% 29.92 in 10.0 mi Calm Calm - N/A   Mostly Cloudy
5:35 AM 66.4 °F - 63.5 °F 90% 29.93 in 10.0 mi Calm Calm - N/A   Mostly Cloudy
5:55 AM 67.1 °F - 63.7 °F 89% 29.93 in 10.0 mi Calm Calm - N/A   Mostly Cloudy
6:15 AM 67.1 °F - 63.7 °F 89% 29.93 in 10.0 mi Calm Calm - N/A   Overcast
6:35 AM 68.0 °F - 63.9 °F 87% 29.94 in 10.0 mi Calm Calm - N/A   Overcast
6:55 AM 68.0 °F - 63.9 °F 87% 29.94 in 10.0 mi Calm Calm - N/A   Mostly Cloudy
7:15 AM 68.5 °F - 64.6 °F 87% 29.94 in 10.0 mi Calm Calm - N/A   Overcast
7:35 AM 69.4 °F - 64.6 °F 84% 29.95 in 10.0 mi Calm Calm - N/A   Overcast
7:55 AM 70.9 °F - 64.8 °F 81% 29.94 in 10.0 mi Calm Calm - N/A   Mostly Cloudy
8:15 AM 71.1 °F - 64.8 °F 80% 29.95 in 10.0 mi Calm Calm - N/A   Scattered Clouds
8:35 AM 71.8 °F - 65.3 °F 80% 29.95 in 10.0 mi Calm Calm - N/A   Clear
8:55 AM 73.6 °F - 65.8 °F 77% 29.94 in 10.0 mi Calm Calm - N/A   Clear
9:15 AM 74.8 °F - 66.0 °F 74% 29.94 in 10.0 mi SSW 3.5 mph - N/A   Clear
9:35 AM 76.3 °F - 66.6 °F 72% 29.93 in 10.0 mi Calm Calm - N/A   Clear
9:55 AM 77.0 °F - 66.6 °F 70% 29.92 in 10.0 mi WSW 4.6 mph - N/A   Clear
10:15 AM 77.7 °F - 67.3 °F 70% 29.93 in 10.0 mi SSW 4.6 mph - N/A   Clear
10:35 AM 77.9 °F - 67.3 °F 70% 29.94 in 10.0 mi SW 4.6 mph - N/A   Clear
10:55 AM 78.4 °F - 67.6 °F 69% 29.93 in 10.0 mi SW 3.5 mph - N/A   Clear
11:15 AM 79.7 °F - 68.2 °F 68% 29.94 in 10.0 mi Calm Calm - N/A   Clear
11:35 AM 80.8 °F 83.5 °F 68.2 °F 65% 29.94 in 10.0 mi SSE 3.5 mph - N/A   Clear
11:55 AM 80.8 °F 83.9 °F 69.3 °F 68% 29.95 in 10.0 mi WSW 4.6 mph - N/A   Scattered Clouds
12:15 PM 81.7 °F 84.9 °F 68.7 °F 65% 29.94 in 10.0 mi Calm Calm - N/A   Clear
12:35 PM 82.4 °F 85.6 °F 68.7 °F 63% 29.95 in 10.0 mi Calm Calm - N/A   Scattered Clouds
12:55 PM 83.3 °F 87.6 °F 70.5 °F 65% 29.95 in 10.0 mi WSW 8.1 mph - N/A   Mostly Cloudy
1:15 PM 83.3 °F 87.4 °F 70.0 °F 64% 29.95 in 10.0 mi West 8.1 mph - N/A   Mostly Cloudy
1:35 PM 83.3 °F 87.1 °F 69.6 °F 63% 29.94 in 10.0 mi WSW 5.8 mph - N/A   Mostly Cloudy
1:55 PM 84.4 °F 89.0 °F 70.7 °F 63% 29.93 in 10.0 mi WSW 6.9 mph - N/A   Scattered Clouds
2:15 PM 85.1 °F 90.1 °F 70.9 °F 62% 29.92 in 10.0 mi SSW 6.9 mph - N/A   Scattered Clouds
2:35 PM 85.8 °F 91.1 °F 71.1 °F 61% 29.91 in 10.0 mi SSW 6.9 mph - N/A   Clear
2:55 PM 86.2 °F 92.2 °F 71.6 °F 62% 29.89 in 10.0 mi SSW 6.9 mph - N/A   Scattered Clouds
3:15 PM 86.2 °F 92.2 °F 71.8 °F 62% 29.88 in 10.0 mi SSW 8.1 mph - N/A   Scattered Clouds
3:35 PM 86.7 °F 92.5 °F 71.2 °F 60% 29.88 in 10.0 mi SW 8.1 mph - N/A   Clear
3:55 PM 86.9 °F 92.5 °F 71.2 °F 59% 29.87 in 10.0 mi SW 6.9 mph - N/A   Scattered Clouds
4:15 PM 86.9 °F 92.5 °F 71.2 °F 59% 29.86 in 10.0 mi SSW 8.1 mph - N/A   Clear
4:35 PM 85.6 °F 91.5 °F 71.6 °F 63% 29.86 in 10.0 mi South 5.8 mph - N/A   Clear
4:55 PM 86.0 °F 92.2 °F 72.0 °F 63% 29.85 in 10.0 mi SW 6.9 mph - N/A   Clear
5:15 PM 85.5 °F 91.5 °F 72.1 °F 64% 29.85 in 10.0 mi SSW 5.8 mph - N/A   Clear
5:35 PM 85.3 °F 91.1 °F 72.0 °F 64% 29.83 in 10.0 mi South 5.8 mph - N/A   Clear
5:55 PM 85.1 °F 91.5 °F 72.5 °F 66% 29.84 in 10.0 mi SW 3.5 mph - N/A   Clear
6:15 PM 86.0 °F 92.6 °F 72.7 °F 64% 29.82 in 10.0 mi SW 4.6 mph - N/A   Clear
6:35 PM 86.2 °F 93.0 °F 72.7 °F 64% 29.83 in 10.0 mi SW 4.6 mph - N/A   Clear
6:55 PM 86.0 °F 92.6 °F 72.7 °F 64% 29.82 in 10.0 mi SSW 4.6 mph - N/A   Clear
7:15 PM 86.0 °F 92.2 °F 72.1 °F 63% 29.81 in 10.0 mi SSW 4.6 mph - N/A   Clear
7:35 PM 85.1 °F 91.1 °F 72.1 °F 65% 29.80 in 10.0 mi SSW 3.5 mph - N/A   Clear
7:55 PM 84.6 °F 90.3 °F 72.0 °F 66% 29.81 in 10.0 mi Calm Calm - N/A   Clear
8:15 PM 83.8 °F 89.8 °F 72.7 °F 69% 29.80 in 10.0 mi Calm Calm - N/A   Clear
8:35 PM 82.6 °F 88.1 °F 72.7 °F 72% 29.79 in 10.0 mi Calm Calm - N/A   Scattered Clouds
8:55 PM 81.9 °F 86.4 °F 71.8 °F 71% 29.80 in 10.0 mi Calm Calm - N/A   Scattered Clouds
9:15 PM 79.2 °F - 72.3 °F 79% 29.81 in 10.0 mi Calm Calm - N/A   Scattered Clouds
9:35 PM 78.6 °F - 72.3 °F 81% 29.80 in 10.0 mi Calm Calm - N/A   Clear
9:55 PM 78.8 °F - 72.1 °F 80% 29.80 in 10.0 mi South 4.6 mph - N/A   Clear
10:15 PM 78.8 °F - 71.8 °F 79% 29.79 in 10.0 mi South 4.6 mph - N/A   Clear
10:35 PM 78.8 °F - 71.6 °F 78% 29.80 in 10.0 mi South 4.6 mph - N/A   Clear
10:55 PM 78.3 °F - 71.6 °F 80% 29.79 in 10.0 mi South 4.6 mph - N/A   Scattered Clouds
11:15 PM 78.8 °F - 71.2 °F 78% 29.79 in 10.0 mi South 4.6 mph - N/A   Mostly Cloudy
11:35 PM 78.8 °F - 70.5 °F 76% 29.78 in 10.0 mi SSW 4.6 mph - N/A   Scattered Clouds
11:55 PM 78.4 °F - 69.8 °F 75% 29.78 in 10.0 mi SSW 5.8 mph - N/A   Mostly Cloudy